When you browse on this site, cookies collect data to enhance your experience and personalize the content and advertising you see.
Visit our Privacy Policy to learn more. By continuing to use the site, you agree to this use of cookies and data.
  • En España
  • Lista de países
  • Para 7 días
  • Temperatura del agua
  • El tiempo en el mapa
  • Informadores
  • user-avatar
    Iniciar sesión

    Tiempo cada hora Maio

    Hoy, 21 Agosto, Miércoles

    Tiempo Temperatura Precipitaciones Viento Presión Humedad
    00:00 +26°C° 0 mm 4 mps 756 mmHg 89%
    01:00 +26°C° 0 mm 4 mps 756 mmHg 88%
    02:00 +26°C° 0 mm 4 mps 756 mmHg 89%
    03:00 +26°C° 0 mm 4 mps 755 mmHg 89%
    04:00 +26°C° 0 mm 4 mps 755 mmHg 90%
    05:00 +26°C° 0 mm 5 mps 755 mmHg 88%
    06:00 +27°C° 0 mm 5 mps 756 mmHg 85%
    07:00 +27°C° 0 mm 6 mps 756 mmHg 83%
    08:00 +28°C° 0 mm 6 mps 756 mmHg 79%
    09:00 +28°C° 0 mm 6 mps 756 mmHg 75%
    10:00 +29°C° 0 mm 6 mps 756 mmHg 71%
    11:00 +29°C° 0 mm 6 mps 755 mmHg 72%
    12:00 +28°C° 0 mm 6 mps 755 mmHg 73%
    13:00 +28°C° 0 mm 5 mps 755 mmHg 74%
    14:00 +28°C° 0 mm 6 mps 755 mmHg 72%
    15:00 +29°C° 0 mm 6 mps 754 mmHg 70%
    16:00 +29°C° 0 mm 6 mps 754 mmHg 67%
    17:00 +28°C° 0 mm 6 mps 754 mmHg 72%
    18:00 +27°C° 0 mm 5 mps 755 mmHg 77%
    19:00 +26°C° 0 mm 5 mps 756 mmHg 82%
    20:00 +26°C° 0 mm 4 mps 756 mmHg 82%
    21:00 +26°C° 0 mm 4 mps 756 mmHg 83%
    22:00 +26°C° 0 mm 4 mps 756 mmHg 83%
    23:00 +25°C° 0 mm 4 mps 755 mmHg 84%

    Mañana, 22 Agosto, Jueves

    Tiempo Temperatura Precipitaciones Viento Presión Humedad
    00:00 +25°C° 0 mm 4 mps 755 mmHg 84%
    01:00 +25°C° 0 mm 4 mps 755 mmHg 85%
    02:00 +25°C° 0 mm 5 mps 754 mmHg 86%
    03:00 +25°C° 0 mm 5 mps 754 mmHg 86%
    04:00 +23°C° 0 mm 6 mps 754 mmHg 86%
    05:00 +24°C° 0 mm 6 mps 754 mmHg 83%
    06:00 +26°C° 0 mm 6 mps 755 mmHg 80%
    07:00 +26°C° 0 mm 6 mps 755 mmHg 76%
    08:00 +27°C° 0 mm 5 mps 755 mmHg 73%
    09:00 +27°C° 0 mm 5 mps 755 mmHg 70%
    10:00 +28°C° 0 mm 5 mps 755 mmHg 67%
    11:00 +28°C° 0 mm 5 mps 755 mmHg 67%
    12:00 +28°C° 0 mm 5 mps 755 mmHg 66%
    13:00 +29°C° 0 mm 5 mps 754 mmHg 66%
    14:00 +28°C° 0 mm 5 mps 754 mmHg 68%
    15:00 +28°C° 0 mm 5 mps 754 mmHg 70%
    16:00 +27°C° 0 mm 5 mps 754 mmHg 71%
    17:00 +27°C° 0 mm 5 mps 754 mmHg 74%
    18:00 +26°C° 0 mm 4 mps 754 mmHg 76%
    19:00 +26°C° 0 mm 4 mps 755 mmHg 79%
    20:00 +25°C° 0 mm 4 mps 755 mmHg 79%
    21:00 +25°C° 0 mm 4 mps 755 mmHg 79%
    22:00 +25°C° 0 mm 3 mps 755 mmHg 79%
    23:00 +25°C° 0 mm 3 mps 755 mmHg 79%

    Pasado mañana, 23 Agosto, Viernes

    Tiempo Temperatura Precipitaciones Viento Presión Humedad
    00:00 +25°C° 0 mm 3 mps 755 mmHg 78%
    01:00 +25°C° 0 mm 2 mps 755 mmHg 77%
    02:00 +26°C° 0 mm 3 mps 755 mmHg 76%
    03:00 +26°C° 0 mm 3 mps 755 mmHg 76%
    04:00 +26°C° 0 mm 3 mps 755 mmHg 76%
    05:00 +26°C° 0 mm 3 mps 755 mmHg 76%
    06:00 +26°C° 0 mm 3 mps 755 mmHg 76%
    07:00 +26°C° 0 mm 2 mps 756 mmHg 76%
    08:00 +27°C° 0 mm 2 mps 756 mmHg 76%
    09:00 +27°C° 0 mm 1 mps 756 mmHg 75%
    10:00 +27°C° 0 mm 1 mps 756 mmHg 75%
    11:00 +27°C° 0 mm 1 mps 756 mmHg 74%
    12:00 +27°C° 0 mm 1 mps 756 mmHg 74%
    13:00 +27°C° 0 mm 1 mps 755 mmHg 74%
    14:00 +27°C° 0 mm 1 mps 755 mmHg 75%
    15:00 +27°C° 0 mm 1 mps 755 mmHg 76%
    16:00 +24°C° 0 mm 0 mps 755 mmHg 77%
    17:00 +26°C° 0 mm 1 mps 755 mmHg 77%
    18:00 +26°C° 0 mm 1 mps 756 mmHg 77%
    19:00 +26°C° 0 mm 1 mps 756 mmHg 77%
    20:00 +26°C° 0 mm 1 mps 756 mmHg 77%
    21:00 +26°C° 0 mm 1 mps 757 mmHg 77%
    22:00 +26°C° 0 mm 2 mps 757 mmHg 78%
    23:00 +26°C° 0 mm 2 mps 757 mmHg 78%

    24 Agosto, Sábado

    Tiempo Temperatura Precipitaciones Viento Presión Humedad
    00:00 +26°C° 0 mm 1 mps 756 mmHg 78%
    01:00 +26°C° 0 mm 1 mps 756 mmHg 78%
    02:00 +26°C° 0 mm 2 mps 756 mmHg 79%
    03:00 +26°C° 0 mm 2 mps 756 mmHg 79%
    04:00 +26°C° 0 mm 2 mps 756 mmHg 79%
    05:00 +26°C° 0 mm 2 mps 756 mmHg 78%
    06:00 +26°C° 0 mm 2 mps 756 mmHg 76%
    07:00 +26°C° 0 mm 2 mps 756 mmHg 75%
    08:00 +27°C° 0 mm 2 mps 757 mmHg 74%
    09:00 +27°C° 0 mm 2 mps 757 mmHg 73%
    10:00 +27°C° 0 mm 2 mps 757 mmHg 72%
    11:00 +28°C° 0 mm 2 mps 756 mmHg 72%
    12:00 +28°C° 0 mm 2 mps 756 mmHg 72%
    13:00 +28°C° 0 mm 2 mps 756 mmHg 71%
    14:00 +28°C° 0 mm 1 mps 756 mmHg 72%
    15:00 +27°C° 0 mm 1 mps 755 mmHg 72%
    16:00 +27°C° 0 mm 1 mps 755 mmHg 72%
    17:00 +27°C° 0 mm 1 mps 755 mmHg 73%
    18:00 +27°C° 0 mm 1 mps 756 mmHg 74%
    19:00 +27°C° 0 mm 1 mps 756 mmHg 75%
    20:00 +27°C° 0 mm 1 mps 756 mmHg 77%
    21:00 +26°C° 0 mm 1 mps 757 mmHg 78%
    22:00 +26°C° 0 mm 1 mps 757 mmHg 79%
    23:00 +26°C° 0 mm 1 mps 757 mmHg 79%

    25 Agosto, Domingo

    Tiempo Temperatura Precipitaciones Viento Presión Humedad
    00:00 +26°C° 0 mm 1 mps 756 mmHg 80%
    01:00 +26°C° 0 mm 2 mps 756 mmHg 80%
    02:00 +25°C° 0 mm 1 mps 756 mmHg 81%
    03:00 +25°C° 0 mm 1 mps 756 mmHg 81%
    04:00 +25°C° 0 mm 1 mps 755 mmHg 82%
    05:00 +26°C° 0 mm 1 mps 756 mmHg 80%
    06:00 +26°C° 0 mm 2 mps 756 mmHg 78%
    07:00 +27°C° 0 mm 2 mps 756 mmHg 76%
    08:00 +27°C° 0 mm 2 mps 756 mmHg 75%
    09:00 +27°C° 0 mm 2 mps 757 mmHg 75%
    10:00 +28°C° 0 mm 2 mps 757 mmHg 74%
    11:00 +28°C° 0 mm 2 mps 756 mmHg 74%
    12:00 +27°C° 0 mm 2 mps 756 mmHg 75%
    13:00 +27°C° 0 mm 1 mps 756 mmHg 75%
    14:00 +27°C° 0 mm 1 mps 756 mmHg 76%
    15:00 +27°C° 0 mm 1 mps 755 mmHg 76%
    16:00 +27°C° 0 mm 1 mps 755 mmHg 76%
    17:00 +27°C° 0 mm 1 mps 756 mmHg 77%
    18:00 +27°C° 0 mm 1 mps 756 mmHg 78%
    19:00 +27°C° 0 mm 1 mps 756 mmHg 78%
    20:00 +26°C° 0 mm 1 mps 756 mmHg 80%
    21:00 +26°C° 0 mm 2 mps 757 mmHg 81%
    22:00 +26°C° 0 mm 2 mps 757 mmHg 83%
    23:00 +25°C° 0 mm 2 mps 757 mmHg 84%

    26 Agosto, Lunes

    Tiempo Temperatura Precipitaciones Viento Presión Humedad
    00:00 +25°C° 0 mm 2 mps 756 mmHg 85%
    01:00 +25°C° 0 mm 3 mps 756 mmHg 85%
    02:00 +25°C° 0 mm 3 mps 756 mmHg 85%
    03:00 +25°C° 0 mm 3 mps 756 mmHg 85%
    04:00 +25°C° 0 mm 3 mps 756 mmHg 85%
    05:00 +25°C° 0 mm 3 mps 756 mmHg 83%
    06:00 +26°C° 0 mm 3 mps 756 mmHg 80%
    07:00 +26°C° 0 mm 3 mps 756 mmHg 78%
    08:00 +27°C° 0 mm 3 mps 757 mmHg 74%
    09:00 +28°C° 0 mm 3 mps 757 mmHg 70%
    10:00 +29°C° 0 mm 3 mps 757 mmHg 67%
    11:00 +29°C° 0 mm 3 mps 756 mmHg 70%
    12:00 +28°C° 0 mm 3 mps 756 mmHg 73%
    13:00 +27°C° 0 mm 2 mps 756 mmHg 76%
    14:00 +27°C° 0 mm 3 mps 755 mmHg 76%
    15:00 +27°C° 0 mm 3 mps 755 mmHg 75%
    16:00 +28°C° 0 mm 3 mps 755 mmHg 74%
    17:00 +27°C° 0 mm 3 mps 755 mmHg 77%
    18:00 +27°C° 0 mm 3 mps 756 mmHg 79%
    19:00 +26°C° 0 mm 4 mps 756 mmHg 81%
    20:00 +26°C° 0 mm 4 mps 757 mmHg 82%
    21:00 +26°C° 0 mm 4 mps 757 mmHg 84%
    22:00 +26°C° 0 mm 4 mps 757 mmHg 85%
    23:00 +25°C° 0 mm 4 mps 757 mmHg 85%
    Mostrar más